FW4174 Weather Reports


time (UTC)temp
F
wind
direction
speed
knots
gust
knots
rain 1hr
in
rain 24hr
in
rain mn
in
humidity
%
barometer
mb
20260502170105 61 243 6.1 13.0 0.00 0.00 0.00 33 1017.1
20260502164044 59 227 7.0 14.8 0.00 0.00 0.00 34 1017.4
20260502163545 59 264 2.6 12.2 0.00 0.00 0.00 35 1017.4
20260502163100 59 234 4.3 12.2 0.00 0.00 0.00 34 1017.5
20260502162545 60 269 6.1 11.3 0.00 0.00 0.00 35 1017.6
20260502162048 60 240 3.5 9.6 0.00 0.00 0.00 35 1017.6
20260502161601 60 273 1.7 10.4 0.00 0.00 0.00 37 1017.7
20260502161047 59 236 4.3 12.2 0.00 0.00 0.00 36 1017.7
20260502160544 58 245 6.1 12.2 0.00 0.00 0.00 35 1017.7
20260502152045 55 246 8.7 13.0 0.00 0.00 0.00 38 1018.2
20260502151606 55 244 7.8 11.3 0.00 0.00 0.00 38 1018.2
20260502151047 55 242 5.2 11.3 0.00 0.00 0.00 40 1018.3
20260502150544 55 246 5.2 12.2 0.00 0.00 0.00 39 1018.3
20260502130545 45 245 7.8 11.3 0.00 0.00 0.00 62 1019.0
20260502130103 44 245 8.7 11.3 0.00 0.00 0.00 64 1019.0
20260502123544 39 236 3.5 6.1 0.00 0.00 0.00 74 1019.0
20260502123050 39 257 2.6 6.1 0.00 0.00 0.00 76 1018.9
20260502122544 38 226 3.5 6.1 0.00 0.00 0.00 76 1019.0
20260502122045 37 234 3.5 7.0 0.00 0.00 0.00 76 1019.0
20260502121553 37 223 3.5 7.8 0.00 0.00 0.00 76 1019.0
20260502121046 36 240 5.2 7.8 0.00 0.00 0.00 76 1019.0
20260502120545 36 244 4.3 7.0 0.00 0.00 0.00 76 1018.9
20260502115544 35 240 3.5 5.2 0.00 0.00 0.00 77 1019.0
20260502115044 35 242 2.6 4.3 0.00 0.00 0.00 77 1019.0
20260502114551 34 256 2.6 3.5 0.00 0.00 0.00 77 1019.1
20260502114045 34 244 1.7 4.3 0.00 0.00 0.00 77 1018.9
20260502113544 34 246 1.7 4.3 0.00 0.00 0.00 77 1018.9
20260502113053 34 239 2.6 4.3 0.00 0.00 0.00 77 1018.9
20260502112546 34 236 2.6 5.2 0.00 0.00 0.00 77 1018.9
20260502112044 34 246 2.6 5.2 0.00 0.00 0.00 76 1018.9
20260502111550 34 234 2.6 6.1 0.00 0.00 0.00 76 1018.9
20260502111046 34 232 2.6 6.1 0.00 0.00 0.00 75 1019.0
20260502110546 35 236 3.5 6.1 0.00 0.00 0.00 75 1019.0
20260502105545 35 236 3.5 7.0 0.00 0.00 0.00 74 1019.0
20260502105044 35 242 4.3 7.0 0.00 0.00 0.00 74 1019.0
20260502104550 36 245 4.3 7.0 0.00 0.00 0.00 74 1019.1
20260502104044 35 237 4.3 7.0 0.00 0.00 0.00 74 1019.0
20260502103545 35 235 5.2 7.0 0.00 0.00 0.00 75 1019.1
20260502103054 35 240 4.3 7.0 0.00 0.00 0.00 75 1019.1
20260502102545 35 241 4.3 6.1 0.00 0.00 0.00 76 1019.0
20260502102047 34 240 3.5 6.1 0.00 0.00 0.00 75 1019.1
20260502101557 34 228 2.6 5.2 0.00 0.00 0.00 75 1019.0
20260502101046 35 232 2.6 5.2 0.00 0.00 0.00 75 1018.9
20260502100545 35 241 2.6 4.3 0.00 0.00 0.00 75 1018.9
20260502091045 37 238 1.7 4.3 0.00 0.00 0.00 71 1018.8
20260502090544 37 246 2.6 6.1 0.00 0.00 0.00 71 1018.8
20260502090113 37 240 3.5 6.1 0.00 0.00 0.00 71 1018.7
20260502071047 37 242 3.5 4.3 0.00 0.00 0.00 71 1019.0
20260502070546 37 236 2.6 4.3 0.00 0.00 0.00 70 1019.0
20260502070106 37 238 2.6 4.3 0.00 0.00 0.00 70 1018.9
20260502065548 37 236 2.6 4.3 0.00 0.00 0.00 70 1019.2
20260502065048 37 246 2.6 4.3 0.00 0.00 0.00 70 1019.2
20260502064610 37 244 1.7 3.5 0.00 0.00 0.00 69 1019.1
20260502064047 37 253 1.7 4.3 0.00 0.00 0.00 69 1019.1
20260502063547 37 244 2.6 6.1 0.00 0.00 0.00 69 1019.3
20260502063057 38 241 3.5 6.1 0.00 0.00 0.00 69 1019.3
20260502062547 38 252 3.5 6.1 0.00 0.00 0.00 68 1019.3
20260502062048 38 245 2.6 6.1 0.00 0.00 0.00 68 1019.3
20260502061549 38 242 4.3 6.1 0.00 0.00 0.00 68 1019.2
20260502061047 38 227 3.5 4.3 0.00 0.00 0.00 68 1019.3
20260502060547 39 248 2.6 4.3 0.00 0.00 0.00 67 1019.4
20260502060053 39 242 0.9 4.3 0.00 0.00 0.00 67 1019.4
20260502055547 39 239 2.6 7.0 0.00 0.00 0.00 67 1019.4
20260502055048 39 242 2.6 7.0 0.00 0.00 0.00 67 1019.3
20260502054556 39 240 5.2 7.0 0.00 0.00 0.00 67 1019.3
20260502054051 39 242 4.3 6.1 0.00 0.00 0.00 66 1019.2
20260502053548 39 240 3.5 7.0 0.00 0.00 0.00 65 1019.3
20260502053058 40 239 4.3 7.0 0.00 0.00 0.00 65 1019.3
20260502052547 40 257 4.3 7.0 0.00 0.00 0.00 65 1019.3
20260502052048 40 249 4.3 6.1 0.00 0.00 0.00 65 1019.3
20260502051554 40 238 4.3 6.1 0.00 0.00 0.00 64 1019.3
20260502051046 40 250 4.3 6.1 0.00 0.00 0.00 64 1019.3
20260502050548 40 239 3.5 6.1 0.00 0.00 0.00 64 1019.2
20260502050055 40 237 3.5 6.1 0.00 0.00 0.00 63 1019.3
20260502045547 41 239 4.3 6.1 0.00 0.00 0.00 63 1019.3
20260502045048 41 237 3.5 6.1 0.00 0.00 0.00 63 1019.3
20260502044557 41 240 3.5 6.1 0.00 0.00 0.00 63 1019.3
20260502044046 41 239 3.5 6.1 0.00 0.00 0.00 63 1019.3
20260502043547 41 243 3.5 6.1 0.00 0.00 0.00 63 1019.1
20260502043054 41 253 3.5 6.1 0.00 0.00 0.00 63 1019.3
20260502042547 41 248 2.6 4.3 0.00 0.00 0.00 63 1019.2
20260502042048 41 244 2.6 4.3 0.00 0.00 0.00 62 1019.2
20260502041559 42 237 2.6 4.3 0.00 0.00 0.00 61 1019.2
20260502041047 42 238 2.6 4.3 0.00 0.00 0.00 60 1019.2
20260502040548 42 240 2.6 4.3 0.00 0.00 0.00 59 1019.1
20260502040054 42 239 2.6 4.3 0.00 0.00 0.00 59 1019.1
20260502035549 43 238 2.6 3.5 0.00 0.00 0.00 57 1019.2
20260502035047 43 246 1.7 3.5 0.00 0.00 0.00 58 1019.2
20260502034553 43 236 1.7 3.5 0.00 0.00 0.00 55 1019.2
20260502034047 43 224 0.9 2.6 0.00 0.00 0.00 55 1019.3
20260502033549 43 225 1.7 3.5 0.00 0.00 0.00 55 1019.2
20260502033108 43 232 1.7 3.5 0.00 0.00 0.00 56 1019.3
20260502032548 43 233 2.6 3.5 0.00 0.00 0.00 56 1019.2
20260502032050 43 216 2.6 3.5 0.00 0.00 0.00 57 1019.3
20260502031559 43 205 1.7 2.6 0.00 0.00 0.00 57 1019.2
20260502031045 43 211 0.9 3.5 0.00 0.00 0.00 57 1019.3
20260502030546 43 218 0.9 3.5 0.00 0.00 0.00 57 1019.3
20260502030057 43 141 0.9 1.7 0.00 0.00 0.00 57 1019.3
20260502025546 43 141 0.9 1.7 0.00 0.00 0.00 58 1019.3
20260502025049 43 141 0.0 1.7 0.00 0.00 0.00 59 1019.2
20260502024609 44 0 0.0 1.7 0.00 0.00 0.00 58 1019.3
20260502024047 45 147 0.0 1.7 0.00 0.00 0.00 53 1019.2
20260502023547 45 263 0.9 1.7 0.00 0.00 0.00 51 1019.2
20260502023121 45 263 0.9 1.7 0.00 0.00 0.00 53 1019.2
20260502022544 45 263 0.9 1.7 0.00 0.00 0.00 52 1019.1
20260502022046 45 263 0.9 1.7 0.00 0.00 0.00 49 1019.1
20260502021602 45 11 0.0 0.9 0.00 0.00 0.00 49 1019.0
20260502021047 45 0 0.0 0.9 0.00 0.00 0.00 49 1018.9
20260502020548 45 0 0.0 0.9 0.00 0.00 0.00 49 1019.0
20260502020055 46 0 0.0 0.0 0.00 0.00 0.00 49 1018.8
20260502015548 46 0 0.0 0.0 0.00 0.00 0.00 49 1018.7
20260502015048 46 0 0.0 0.0 0.00 0.00 0.00 50 1018.6
20260502014550 46 0 0.0 0.0 0.00 0.00 0.00 49 1018.7
20260502014047 46 0 0.0 0.0 0.00 0.00 0.00 49 1018.6
20260502013546 47 0 0.0 0.0 0.00 0.00 0.00 49 1018.5
20260502013057 47 0 0.0 0.0 0.00 0.00 0.00 49 1018.5
20260502012545 47 0 0.0 1.7 0.00 0.00 0.00 49 1018.5
20260502012047 48 0 0.0 1.7 0.00 0.00 0.00 48 1018.4
20260502011552 48 0 0.0 2.6 0.00 0.00 0.00 48 1018.4
20260502011046 49 0 0.0 3.5 0.00 0.00 0.00 47 1018.4
20260502010546 49 11 0.9 4.3 0.00 0.00 0.00 46 1018.4
20260502010055 49 13 0.9 4.3 0.00 0.00 0.00 45 1018.4
20260502005544 49 5 1.7 7.0 0.00 0.00 0.00 45 1018.4
20260502005049 50 306 1.7 7.8 0.00 0.00 0.00 45 1018.4
20260502004559 50 312 3.5 7.8 0.00 0.00 0.00 44 1018.4
20260502004047 50 9 3.5 6.1 0.00 0.00 0.00 44 1018.3
20260502003549 50 14 1.7 6.1 0.00 0.00 0.00 42 1018.4
20260502003049 50 17 1.7 4.3 0.00 0.00 0.00 42 1018.3
20260502002550 50 336 0.9 3.5 0.00 0.00 0.00 42 1018.4
20260502002047 50 0 0.0 3.5 0.00 0.00 0.00 42 1018.4
20260502001637 50 324 1.7 3.5 0.00 0.00 0.00 43 1018.3
20260502001046 50 316 0.0 3.5 0.00 0.00 0.00 45 1018.3
20260502000549 50 324 1.7 5.2 0.00 0.00 0.00 44 1018.3
20260502000110 50 323 1.7 6.1 0.00 0.00 0.00 44 1018.3
20260501235546 50 327 2.6 8.7 0.00 0.00 0.00 43 1018.3
20260501235046 50 328 3.5 8.7 0.00 0.00 0.00 42 1018.4
20260501234556 51 331 2.6 7.0 0.00 0.00 0.00 43 1018.4
20260501234048 51 326 3.5 7.8 0.00 0.00 0.00 42 1018.3
20260501233548 51 328 3.5 8.7 0.00 0.00 0.00 41 1018.3
20260501233102 52 321 5.2 9.6 0.00 0.00 0.00 40 1018.3
20260501232547 52 325 3.5 9.6 0.00 0.00 0.00 40 1018.3
20260501232046 52 338 3.5 7.8 0.00 0.00 0.00 39 1018.3
20260501231608 52 9 1.7 7.8 0.00 0.00 0.00 40 1018.2
20260501231048 51 316 3.5 7.0 0.00 0.00 0.00 42 1018.2
20260501230547 51 316 1.7 7.8 0.00 0.00 0.00 43 1018.3
20260501230100 52 324 2.6 7.8 0.00 0.00 0.00 42 1018.3
20260501225546 52 335 2.6 7.8 0.00 0.00 0.00 41 1018.3
20260501225047 52 311 3.5 8.7 0.00 0.00 0.00 41 1018.3
20260501224612 53 337 4.3 8.7 0.00 0.00 0.00 41 1018.3
20260501224046 53 342 3.5 8.7 0.00 0.00 0.00 41 1018.4
20260501223547 54 311 4.3 8.7 0.00 0.00 0.00 40 1018.3
20260501223103 54 317 2.6 7.8 0.00 0.00 0.00 39 1018.2
20260501222550 54 321 0.9 7.0 0.00 0.00 0.00 38 1018.3
20260501222047 55 302 1.7 9.6 0.00 0.00 0.00 38 1018.3
20260501221552 55 346 1.7 9.6 0.00 0.00 0.00 39 1018.2
20260501221047 54 209 4.3 9.6 0.00 0.00 0.00 39 1018.2
20260501220547 54 336 2.6 7.0 0.00 0.00 0.00 40 1018.2
20260501220054 54 338 2.6 10.4 0.00 0.00 0.00 40 1018.2
20260501215547 53 323 2.6 13.0 0.00 0.00 0.00 43 1018.2
20260501215045 53 302 7.0 13.0 0.00 0.00 0.00 40 1018.2
20260501214551 53 317 5.2 11.3 0.00 0.00 0.00 41 1018.2
20260501214046 53 27 4.3 10.4 0.00 0.00 0.00 41 1018.3
20260501213545 53 317 4.3 10.4 0.00 0.00 0.00 39 1018.2
20260501213050 53 351 6.1 9.6 0.00 0.00 0.00 41 1018.2
20260501212545 53 321 4.3 9.6 0.00 0.00 0.00 40 1018.2
20260501212048 54 324 3.5 7.8 0.00 0.00 0.00 41 1018.2
20260501211550 52 13 2.6 7.0 0.00 0.00 0.00 45 1018.2
20260501211047 52 21 2.6 7.0 0.00 0.00 0.00 41 1018.3
20260501210546 52 309 4.3 9.6 0.00 0.00 0.00 42 1018.3
20260501210051 52 306 1.7 11.3 0.00 0.00 0.00 44 1018.4
20260501205546 53 333 6.1 11.3 0.00 0.00 0.00 40 1018.3
20260501205046 54 360 7.8 11.3 0.00 0.00 0.00 41 1018.4
20260501204553 54 318 1.7 9.6 0.00 0.00 0.00 44 1018.4
20260501204045 53 242 1.7 7.0 0.00 0.00 0.00 42 1018.4
20260501203545 53 330 2.6 9.6 0.00 0.00 0.00 45 1018.5
20260501203052 52 281 2.6 11.3 0.00 0.00 0.00 45 1018.5
20260501202547 52 51 5.2 16.5 0.00 0.00 0.00 44 1018.4
20260501202048 52 331 6.1 16.5 0.00 0.00 0.00 43 1018.5
20260501201554 52 271 0.9 11.3 0.00 0.00 0.00 45 1018.5
20260501201048 51 261 2.6 11.3 0.00 0.00 0.00 43 1018.6
20260501200546 51 329 5.2 14.8 0.00 0.00 0.00 45 1018.6
20260501200054 51 306 5.2 14.8 0.00 0.00 0.00 44 1018.6
20260501195546 51 331 5.2 10.4 0.00 0.00 0.00 45 1018.5
20260501195046 51 337 5.2 9.6 0.00 0.00 0.00 43 1018.6
20260501194559 51 306 1.7 4.3 0.00 0.00 0.00 44 1018.5
20260501194047 50 303 1.7 9.6 0.00 0.00 0.00 45 1018.6
20260501193548 50 350 3.5 9.6 0.00 0.00 0.00 45 1018.6
20260501193050 51 316 3.5 12.2 0.00 0.00 0.00 45 1018.6
20260501192545 52 319 7.0 12.2 0.00 0.00 0.00 44 1018.6
20260501192049 53 19 5.2 12.2 0.00 0.00 0.00 46 1018.6
20260501191555 52 283 2.6 6.1 0.00 0.00 0.00 47 1018.5
20260501191045 51 315 1.7 6.1 0.00 0.00 0.00 46 1018.6
20260501190547 50 329 2.6 7.0 0.00 0.00 0.00 48 1018.5
20260501190050 50 306 2.6 8.7 0.00 0.00 0.00 48 1018.6
20260501185547 50 318 3.5 10.4 0.00 0.00 0.00 48 1018.7
20260501185047 50 305 6.1 11.3 0.00 0.00 0.00 47 1018.6
20260501184555 51 306 6.1 11.3 0.00 0.00 0.00 46 1018.6
20260501184048 50 318 2.6 9.6 0.00 0.00 0.00 50 1018.6
20260501183549 50 329 4.3 9.6 0.00 0.00 0.00 47 1018.5
20260501183051 50 300 4.3 8.7 0.00 0.00 0.00 50 1018.4
20260501182546 49 9 3.5 12.2 0.00 0.00 0.00 49 1018.5
20260501182045 49 360 7.0 12.2 0.00 0.00 0.00 48 1018.5
20260501181606 50 16 6.1 12.2 0.00 0.00 0.00 49 1018.6
20260501181048 50 17 7.0 12.2 0.00 0.00 0.00 48 1018.6
20260501180545 51 341 2.6 16.5 0.00 0.00 0.00 50 1018.5
20260501180101 50 22 7.0 16.5 0.00 0.00 0.00 53 1018.6
20260501175548 49 350 3.5 8.7 0.00 0.00 0.00 51 1018.7